Location: Kalberh�ni
(46.4610°N, 7.2453°E)
Time: 18:43:59
(UTC+00:00)

Meteor 2-1 Rocket - Pass Details

Date: 31 October 2021
Orbit: 830 x 906 km, 81.3° (Epoch: 28 November)

Event Time Altitude Azimuth Distance (km) Brightness Sun altitude
Rises 03:50:06 0° 360° (N) 3,392 7.4 -24.7°
Reaches altitude 10° 03:53:13 10° 18° (NNE) 2,460 6.9 -24.2°
Maximum altitude 03:57:11 20° 63° (ENE) 1,877 6.7 -23.5°
Drops below altitude 10° 04:01:11 10° 109° (ESE) 2,475 7.6 -22.8°
Sets 04:04:18 0° 126° (SE) 3,420 8.1 -22.3°
